Temperature
13 13 13 13 13 13 12 12 12 12 12 12 12 12 12 12 12 12 12 12 12 12 12 12 13 13 13 13 13 13 13 13 13 14 14 14 14 14 14 15 15 15 15
14 13 13 13 13 13 13 13 12 12 12 12 12 12 12 12 12 12 12 12 12 12 12 12 12 12 13 13 13 13 13 13 13 13 14 14 14 14 14 14 14 14 14
14 13 13 13 13 13 13 13 13 13 12 12 12 12 12 12 12 12 12 12 12 12 12 12 12 12 12 13 13 13 13 13 13 13 13 13 13 13 14 14 14 14 14
14 14 13 13 13 13 13 13 13 13 13 12 12 12 12 12 12 12 12 12 12 12 12 12 12 12 12 12 12 12 12 13 13 13 13 13 13 13 13 13 13 14 14
14 14 14 13 13 13 13 13 13 13 13 13 12 12 12 12 12 12 12 12 12 12 12 12 12 12 12 12 12 12 12 12 12 12 12 12 12 13 13 13 13 13 13
15 14 14 14 13 13 13 13 13 13 13 13 13 12 12 12 12 12 12 12 12 12 12 12 12 12 12 12 12 12 12 12 12 12 12 12 12 12 12 12 13 13 13
15 14 14 14 14 13 13 13 13 13 13 13 13 13 12 12 12 12 12 12 12 12 12 12 12 12 12 12 12 12 12 12 12 12 12 12 12 12 12 12 12 12 12
15 15 14 14 14 14 14 13 13 13 13 13 13 13 13 12 12 12 12 12 12 12 12 12 12 12 12 12 12 12 12 12 12 12 12 12 12 12 12 12 12 12 12
15 15 15 14 14 14 14 14 14 13 13 13 13 13 13 13 12 12 12 12 12 12 12 12 12 12 12 12 12 12 12 12 12 12 12 12 12 12 12 12 12 12 12
15 15 15 14 14 14 14 14 14 13 13 13 13 13 13 13 12 12 12 12 12 12 12 12 12 12 12 12 12 12 12 12 12 12 12 12 12 12 12 12 11 11 11
15 15 15 15 14 14 14 14 14 13 13 13 13 13 13 13 13 13 12 12 12 12 12 12 12 12 11 11 11 11 11 11 11 11 12 12 12 12 12 11 11 11 11
15 15 15 15 14 14 14 14 14 13 13 13 13 13 13 13 13 13 13 12 12 12 12 12 12 12 11 11 11 11 11 11 11 11 11 11 11 11 11 11 11 11 11
15 15 15 15 14 14 14 14 14 14 13 13 13 13 13 13 13 13 13 13 12 12 12 12 12 12 11 11 11 11 11 11 11 11 11 11 11 11 11 11 11 11 11
15 15 15 15 14 14 14 14 14 13 13 13 13 13 13 13 13 13 13 13 12 12 12 12 12 11 11 11 11 11 11 11 11 11 11 11 11 11 11 11 11 11 11
15 15 15 14 14 14 14 13 13 13 13 13 13 12 13 13 13 12 12 13 12 12 12 12 12 12 11 11 11 11 11 11 11 11 11 11 11 11 11 11 11 11 11
15 15 14 14 14 13 13 13 13 12 12 12 12 12 12 12 12 12 12 12 12 12 12 12 12 11 11 11 11 11 11 11 11 11 10 10 10 10 10 10 10 10 10
14 14 14 13 13 13 13 13 12 12 12 12 12 12 12 12 12 12 12 12 12 12 12 11 11 11 11 11 10 10 10 10 10 10 10 10 10 10 10 10 10 10 10
14 14 13 13 13 12 12 12 12 12 12 12 11 11 11 11 11 12 11 11 11 11 11 10 10 10 10 10 10 10 10 10 10 10 10 10 10 10 10 10 10 10 10
13 13 13 12 12 12 11 11 11 11 11 11 11 11 11 11 11 11 11 11 10 10 10 10 9 9 9 9 9 9 9 9 9 9 9 9 9 9 9 9 9 9 9
13 12 12 12 11 11 11 11 10 10 10 10 10 10 10 10 10 10 10 9 9 9 9 9 9 9 9 9 8 8 9 9 8 8 9 9 9 9 9 9 9 9 9
12 12 11 11 11 10 10 10 9 9 9 9 9 8 8 8 9 8 8 8 8 8 8 8 8 8 8 8 8 8 8 8 8 8 8 8 8 8 8 8 8 8 8
11 11 10 10 10 9 9 9 8 8 8 8 8 7 7 7 7 7 7 7 7 6 6 6 6 6 6 6 6 6 7 7 7 7 7 7 7 7 7 7 8 8 8
10 10 9 9 8 8 8 8 7 7 7 7 7 6 6 6 6 6 6 6 5 5 5 5 5 5 5 5 5 5 5 5 5 5 5 6 6 6 6 6 7 7 7
9 9 8 8 7 7 7 7 7 6 6 6 6 6 5 5 5 5 5 5 5 5 5 5 4 4 4 4 4 4 4 4 4 4 4 4 5 5 5 5 5 6 6
8 8 7 7 7 7 6 6 6 6 5 5 5 5 5 4 4 4 4 4 4 4 4 4 4 4 3 3 3 3 3 3 3 3 3 3 4 4 4 4 4 5 5
7 7 7 6 6 6 6 6 5 5 5 4 4 4 4 4 4 3 3 3 3 3 3 3 3 3 3 3 2 2 2 2 2 2 2 2 3 3 3 3 3 4 4
Wind_Speed
3 3 3 3 3 3 3 4 4 4 4 4 4 4 3 3 2 2 1 1 0 0 0 1 1 1 1 1 1 2 2 2 3 2 1 1 1 2 1 2 3 4 5
3 2 3 3 3 3 4 4 4 4 4 4 4 3 3 3 2 2 2 1 1 0 1 0 0 0 0 0 1 1 1 2 2 2 1 1 1 2 2 2 2 2 3
2 2 3 3 3 4 4 4 4 4 5 4 4 4 4 3 3 2 1 1 0 0 1 1 1 1 1 1 1 1 1 1 2 2 2 1 1 1 1 1 1 1 1
2 2 2 3 3 4 4 4 4 4 4 4 4 4 4 4 3 2 1 1 1 1 1 1 1 2 2 2 2 2 2 1 1 1 1 1 1 1 1 1 1 1 2
2 2 3 3 3 3 3 4 4 4 4 4 4 4 5 4 3 2 1 1 1 1 2 1 1 1 2 2 2 2 3 2 1 2 2 1 2 2 2 2 2 1 2
3 3 3 2 2 3 3 3 3 4 4 4 4 4 5 4 5 4 1 0 1 1 2 2 2 2 2 1 1 2 4 4 3 3 2 3 4 3 3 2 2 2 2
3 3 3 2 2 3 3 3 3 4 3 4 4 4 5 6 6 5 3 1 1 1 1 2 2 2 3 2 3 3 3 4 5 4 4 5 4 4 4 4 4 3 3
4 3 3 3 3 3 2 3 4 3 3 3 3 4 4 6 7 4 3 2 1 1 1 1 2 3 3 2 1 2 3 3 4 4 5 6 5 5 5 4 4 2 2
4 4 4 3 3 3 3 4 3 2 3 3 3 3 4 6 7 5 3 1 1 2 2 1 2 2 4 3 1 2 3 4 4 5 6 6 7 7 5 3 3 3 3
6 5 4 4 4 4 4 4 2 2 3 4 4 3 3 5 7 5 3 0 1 2 3 3 3 3 4 3 1 2 3 4 3 3 3 3 3 4 6 6 5 4 3
5 4 3 3 4 4 4 3 2 3 3 3 4 4 4 5 6 6 3 1 2 2 2 3 3 5 5 4 3 2 4 4 2 2 2 3 2 3 4 4 5 5 5
3 3 3 3 3 2 3 3 2 2 3 4 4 5 4 4 5 6 5 3 3 2 3 3 3 5 5 5 3 4 5 3 1 2 2 2 3 3 3 3 4 4 5
3 2 2 2 2 2 2 3 2 2 2 3 3 4 5 4 4 6 6 5 4 3 3 4 4 5 5 4 4 5 3 1 1 2 3 3 3 3 2 1 2 2 3
3 2 1 1 2 2 1 1 2 2 2 3 3 4 5 5 4 4 3 3 3 2 2 3 4 4 3 3 4 3 2 2 2 2 3 3 2 2 2 2 2 2 2
3 2 1 1 1 1 1 1 2 2 2 2 3 3 3 5 5 5 3 3 2 1 0 2 2 3 4 4 4 4 3 2 2 2 2 3 3 3 3 2 2 2 3
3 2 1 1 1 1 1 2 2 1 3 4 3 2 3 5 7 7 6 4 2 1 3 2 2 3 3 4 4 4 3 3 3 3 3 3 3 3 3 2 2 3 4
4 3 2 1 1 0 0 0 2 4 5 6 7 7 6 6 7 6 5 6 6 5 3 2 2 3 3 3 3 3 3 4 4 3 3 3 3 3 3 3 3 3 4
4 3 3 2 1 1 1 0 1 1 3 4 6 9 9 9 10 9 7 6 6 6 4 3 3 3 3 4 4 3 4 4 4 4 4 4 3 3 4 4 4 4 4
4 2 2 2 1 1 1 2 2 2 2 3 4 6 9 8 10 12 9 6 5 5 4 4 4 4 4 4 4 4 4 4 4 4 4 4 4 4 4 5 4 5 4
4 6 5 3 3 3 3 3 3 3 3 4 5 5 5 5 6 7 7 6 5 4 4 4 4 5 5 5 5 5 5 5 5 5 5 5 5 4 5 6 5 5 5
4 5 7 5 4 4 4 4 4 4 4 4 4 5 7 5 5 5 5 5 5 5 5 5 5 5 5 5 5 5 6 6 6 6 6 6 6 6 6 6 6 6 6
5 5 4 4 4 4 4 4 4 4 4 4 3 5 8 5 4 4 4 4 4 4 3 3 4 4 4 4 5 5 6 6 7 7 7 7 7 7 7 6 6 6 6
6 6 5 4 4 5 5 4 3 3 3 3 3 3 4 4 4 4 4 4 4 4 4 4 4 4 4 5 5 5 5 6 7 8 8 8 8 8 7 8 8 8 8
6 6 6 5 4 4 4 3 3 3 3 2 2 2 3 3 3 3 3 3 3 3 4 4 4 5 6 6 6 7 7 9 9 8 9 9 9 9 8 8 9 9 9
6 6 5 5 4 4 4 3 2 2 2 2 1 1 1 2 2 2 3 3 4 4 5 5 4 5 6 7 8 9 12 14 13 11 9 8 9 9 9 10 10 10 9
6 6 5 4 4 4 3 3 2 2 2 1 1 0 0 1 2 2 3 3 3 4 4 5 6 7 8 8 10 12 14 14 15 15 11 8 8 9 10 9 12 11 11
Wind_Direction
269 281 305 311 319 328 328 321 324 328 332 335 334 339 342 342 343 0 349 1 39 354 82 152 210 199 180 196 181 180 190 180 214 256 249 258 222 213 212 209 218 216 218
254 275 296 312 324 330 326 324 331 331 331 330 336 342 338 336 334 332 325 341 325 292 284 134 277 191 209 230 190 194 205 200 197 235 264 267 239 211 204 210 211 206 214
243 267 299 312 319 316 316 323 331 335 337 340 347 346 336 331 326 309 293 317 315 265 255 232 247 198 227 239 211 209 219 221 196 208 241 242 270 225 186 194 192 197 216
223 244 280 292 301 305 314 325 331 336 340 341 343 341 338 333 329 323 321 336 351 346 315 250 234 212 220 222 219 214 204 201 193 201 230 241 245 245 187 193 222 220 240
207 238 265 286 305 314 322 327 333 339 340 337 344 345 345 342 342 343 339 356 355 356 346 325 294 253 238 217 208 203 189 191 202 213 227 247 241 223 221 206 221 247 249
203 239 265 293 309 311 313 320 331 333 336 345 346 343 345 344 348 356 7 37 7 6 332 328 328 314 305 303 276 236 206 200 206 213 225 230 242 232 225 211 206 222 249
211 239 257 271 289 297 310 326 322 318 327 334 333 340 334 329 347 0 15 46 41 340 309 315 322 324 317 297 294 290 267 242 222 213 222 232 231 221 215 220 217 222 236
217 240 251 255 271 291 309 309 305 305 308 309 315 323 324 329 345 351 5 29 29 342 305 288 296 313 317 307 294 299 292 275 249 230 227 235 234 226 217 223 224 232 252
222 238 241 235 251 271 282 286 285 296 300 299 299 311 318 318 335 339 345 15 352 327 313 307 297 299 314 329 329 299 302 299 287 262 247 248 248 239 215 196 202 215 243
227 235 237 228 234 250 261 268 270 275 286 299 305 301 298 301 320 330 333 65 319 317 326 323 316 310 305 312 287 274 288 292 304 312 293 275 257 246 224 212 210 219 232
225 228 232 231 236 245 259 263 270 285 304 310 308 306 298 293 306 318 316 195 233 280 303 307 303 316 319 310 295 263 270 281 280 284 288 287 274 249 234 220 214 214 225
197 212 236 246 251 250 251 272 277 285 303 309 314 316 309 301 298 304 306 279 227 223 264 273 283 305 316 318 309 294 293 300 288 287 278 277 272 262 248 233 226 228 234
170 205 241 263 266 265 251 269 283 279 282 296 302 305 308 312 310 307 302 297 270 232 257 272 295 317 328 325 317 319 322 309 292 287 282 277 267 255 254 252 238 233 250
163 200 232 261 288 294 270 256 258 271 273 284 291 293 300 310 313 316 309 302 293 274 288 315 333 344 346 332 332 334 326 275 263 268 279 279 278 264 255 243 241 236 253
163 183 211 240 270 291 293 251 239 255 224 249 271 270 287 302 306 310 306 298 276 256 15 19 15 5 358 352 345 335 329 327 306 282 279 287 288 280 268 243 232 228 234
159 181 194 206 246 279 311 338 331 295 7 13 347 310 278 285 311 328 330 332 344 87 92 33 2 356 344 335 333 331 328 324 311 295 286 281 283 284 288 272 242 242 251
163 171 166 163 162 178 59 0 342 1 23 26 21 20 17 5 5 8 21 43 51 69 69 28 356 339 328 322 318 313 313 316 313 306 296 292 287 283 282 281 271 260 260
153 148 144 152 153 143 135 113 82 34 14 5 12 21 25 31 33 31 37 58 48 45 39 18 1 351 341 334 329 324 320 324 327 321 313 309 302 297 294 287 276 267 270
139 138 129 120 110 102 91 86 80 71 55 21 12 14 19 31 42 40 47 58 52 38 26 15 5 358 354 350 344 339 336 334 333 329 324 317 312 307 297 292 285 276 270
124 125 119 109 93 87 85 85 80 73 64 50 34 14 8 37 46 39 41 43 43 33 22 17 12 7 3 359 355 353 354 350 344 338 329 324 318 307 297 293 288 282 273
117 115 112 101 96 95 92 90 88 84 76 64 44 36 48 59 53 43 39 37 33 27 23 19 17 12 9 6 2 1 360 354 347 340 331 323 319 314 304 294 288 282 280
122 116 112 110 104 97 94 91 90 88 81 71 44 38 44 52 51 45 37 29 24 20 15 14 10 7 5 3 2 360 356 351 344 339 333 327 320 313 308 303 297 291 284
123 118 110 105 105 105 97 91 92 91 85 73 60 49 44 45 43 39 30 20 15 11 9 12 6 359 357 357 356 352 346 339 333 329 326 321 318 315 311 305 301 298 289
128 127 124 120 115 113 113 107 101 99 96 85 68 58 49 40 33 24 13 4 1 357 355 357 355 352 351 350 350 347 342 335 331 326 320 316 315 313 310 305 300 297 293
133 133 134 135 134 131 127 122 118 114 107 99 87 68 42 25 10 358 350 347 345 343 340 340 340 340 338 334 333 334 335 335 335 332 323 314 313 313 312 309 305 301 295
138 139 140 141 143 146 147 148 151 150 148 150 147 143 335 336 330 328 328 330 329 325 324 325 325 323 322 325 324 326 328 330 330 328 325 314 311 309 311 308 307 303 297
Height
1506 1505 1503 1502 1500 1499 1497 1495 1492 1490 1488 1486 1484 1482 1480 1479 1478 1477 1476 1476 1476 1476 1477 1478 1479 1480 1481 1482 1483 1484 1485 1486 1486 1487 1488 1489 1490 1492 1493 1494 1496 1497 1499
1505 1504 1503 1501 1500 1498 1496 1494 1492 1490 1488 1486 1484 1482 1480 1479 1477 1476 1476 1475 1475 1475 1476 1476 1477 1478 1479 1480 1481 1482 1483 1484 1485 1485 1486 1486 1488 1489 1490 1491 1492 1494 1495
1504 1503 1502 1501 1499 1498 1496 1494 1492 1490 1488 1486 1484 1482 1480 1479 1477 1476 1475 1475 1474 1474 1475 1475 1476 1477 1478 1479 1480 1480 1481 1482 1482 1483 1483 1484 1485 1486 1487 1487 1489 1490 1492
1503 1502 1501 1500 1499 1497 1496 1494 1492 1490 1488 1486 1484 1482 1481 1479 1477 1476 1475 1475 1474 1474 1474 1474 1475 1475 1476 1477 1478 1479 1479 1480 1480 1481 1481 1481 1482 1483 1483 1484 1485 1486 1488
1502 1501 1500 1500 1498 1497 1495 1494 1492 1490 1488 1487 1485 1483 1481 1479 1477 1476 1475 1475 1474 1474 1474 1474 1474 1474 1475 1476 1476 1477 1477 1477 1478 1478 1478 1479 1479 1480 1480 1481 1482 1482 1484
1500 1500 1500 1499 1498 1496 1495 1494 1492 1490 1489 1487 1485 1483 1481 1479 1478 1477 1476 1475 1475 1474 1474 1473 1473 1473 1474 1474 1474 1475 1475 1475 1475 1476 1476 1476 1477 1477 1478 1478 1478 1479 1479
1499 1499 1498 1498 1497 1496 1494 1493 1492 1490 1489 1487 1485 1483 1482 1480 1478 1477 1476 1476 1475 1474 1473 1473 1472 1472 1472 1472 1472 1473 1473 1473 1473 1474 1473 1473 1474 1474 1475 1475 1475 1475 1476
1497 1497 1497 1497 1496 1495 1494 1493 1491 1490 1488 1487 1485 1484 1482 1480 1479 1478 1477 1476 1475 1474 1474 1473 1472 1471 1471 1471 1470 1470 1470 1470 1470 1470 1470 1471 1471 1471 1471 1472 1472 1472 1473
1495 1496 1496 1495 1495 1494 1493 1492 1491 1489 1488 1487 1485 1484 1482 1481 1479 1478 1477 1476 1475 1474 1473 1472 1472 1471 1470 1469 1469 1468 1468 1468 1468 1467 1467 1467 1468 1468 1468 1468 1468 1468 1468
1494 1494 1494 1494 1493 1492 1492 1491 1490 1489 1488 1486 1485 1483 1482 1481 1479 1478 1477 1476 1475 1474 1473 1472 1471 1470 1469 1468 1468 1467 1466 1466 1465 1465 1465 1465 1465 1465 1465 1465 1465 1465 1465
1492 1492 1492 1492 1491 1491 1490 1490 1489 1488 1486 1485 1484 1483 1481 1480 1479 1478 1476 1475 1474 1473 1472 1471 1470 1469 1468 1467 1466 1465 1465 1464 1463 1463 1462 1462 1462 1462 1462 1462 1462 1462 1462
1489 1490 1490 1490 1489 1489 1488 1488 1487 1486 1485 1484 1482 1481 1480 1479 1478 1476 1475 1474 1473 1472 1471 1470 1469 1468 1467 1466 1465 1464 1463 1462 1461 1461 1460 1460 1459 1459 1459 1459 1459 1459 1459
1487 1487 1487 1487 1487 1487 1486 1486 1485 1484 1483 1481 1480 1479 1478 1478 1476 1475 1474 1473 1472 1471 1470 1469 1468 1467 1466 1465 1464 1463 1462 1461 1460 1459 1458 1457 1457 1456 1456 1456 1456 1455 1455
1484 1484 1485 1485 1485 1484 1483 1483 1482 1481 1480 1479 1478 1477 1476 1475 1474 1473 1472 1471 1470 1469 1468 1467 1466 1465 1464 1463 1462 1461 1460 1459 1458 1457 1456 1455 1454 1453 1453 1453 1452 1452 1452
1481 1482 1482 1482 1482 1481 1481 1480 1479 1478 1477 1476 1475 1474 1473 1472 1472 1471 1469 1468 1467 1467 1466 1465 1464 1463 1462 1461 1460 1459 1458 1457 1456 1454 1453 1452 1452 1451 1450 1450 1449 1449 1448
1478 1479 1479 1479 1479 1479 1478 1478 1477 1476 1475 1474 1473 1472 1471 1470 1469 1468 1467 1466 1465 1464 1463 1462 1461 1460 1459 1458 1457 1456 1455 1454 1453 1452 1451 1450 1449 1448 1447 1447 1446 1445 1444
1475 1476 1476 1476 1476 1476 1476 1475 1475 1474 1473 1472 1471 1470 1468 1467 1466 1465 1464 1463 1462 1461 1460 1459 1458 1458 1457 1455 1454 1453 1452 1451 1450 1449 1448 1447 1446 1445 1444 1443 1442 1441 1441
1472 1473 1473 1474 1474 1473 1473 1473 1472 1472 1471 1470 1469 1467 1466 1465 1464 1463 1462 1461 1459 1458 1457 1457 1456 1455 1454 1453 1452 1450 1449 1448 1447 1446 1445 1444 1442 1441 1440 1439 1438 1437 1436
1469 1470 1470 1471 1471 1471 1471 1470 1470 1469 1468 1467 1466 1465 1464 1463 1462 1461 1459 1458 1457 1456 1455 1455 1454 1453 1452 1450 1449 1448 1446 1445 1444 1443 1441 1440 1439 1438 1436 1435 1434 1433 1432
1467 1467 1468 1468 1468 1468 1468 1468 1467 1467 1466 1465 1464 1463 1462 1461 1460 1458 1457 1456 1455 1454 1454 1453 1452 1450 1449 1448 1446 1445 1443 1442 1440 1439 1437 1436 1435 1433 1432 1431 1430 1429 1427
1464 1465 1465 1465 1465 1465 1465 1465 1465 1465 1464 1464 1463 1462 1461 1460 1458 1457 1456 1455 1454 1453 1452 1450 1449 1448 1446 1445 1443 1441 1440 1438 1437 1435 1433 1432 1430 1429 1427 1426 1425 1424 1422
1461 1462 1462 1463 1463 1463 1463 1464 1463 1463 1463 1462 1462 1461 1460 1459 1458 1457 1455 1454 1453 1452 1450 1449 1447 1445 1443 1442 1440 1438 1436 1434 1432 1430 1429 1427 1425 1424 1422 1420 1419 1418 1417
1459 1459 1460 1461 1461 1462 1462 1462 1462 1462 1462 1461 1461 1460 1459 1458 1457 1456 1455 1453 1452 1450 1449 1447 1445 1443 1441 1439 1437 1435 1433 1430 1428 1426 1424 1422 1420 1418 1417 1415 1413 1412 1410
1456 1457 1458 1459 1460 1460 1461 1461 1461 1461 1461 1460 1460 1459 1458 1457 1456 1455 1453 1452 1450 1449 1447 1445 1443 1440 1438 1436 1434 1431 1429 1427 1424 1422 1419 1417 1415 1413 1411 1409 1407 1405 1404
1454 1455 1456 1457 1458 1459 1459 1460 1460 1460 1460 1459 1459 1458 1457 1456 1455 1453 1452 1450 1448 1446 1444 1442 1439 1437 1434 1432 1429 1427 1424 1422 1419 1417 1414 1412 1409 1407 1405 1402 1400 1398 1397
1452 1454 1455 1456 1457 1457 1458 1458 1458 1458 1458 1457 1457 1456 1455 1454 1452 1451 1449 1447 1445 1443 1441 1438 1436 1433 1430 1427 1424 1422 1419 1416 1414 1411 1408 1406 1403 1400 1398 1396 1393 1391 1390